Location: Unspecified
(48.8656°N, 0.0000°E)
Time: 18:28:31
(UTC+00:00)

Transit 2A Rocket - Pass Details

Date: 23 June 2019
Orbit: 588 x 915 km, 66.7° (Epoch: 15 July)

Event Time Altitude Azimuth Distance (km) Brightness Sun altitude
Rises 16:43:52 0° 325° (NW) 3,391 8.8 30.1°
Reaches altitude 10° 16:46:49 10° 337° (NNW) 2,398 8.0 29.6°
Maximum altitude 16:51:25 27° 34° (NE) 1,455 6.4 28.9°
Drops below altitude 10° 16:55:40 10° 92° (E) 2,202 6.9 28.2°
Sets 16:58:15 0° 105° (ESE) 3,060 7.6 27.8°
